Regional Weather Roundup
Issued by NWS Grand Forks, ND

Home | Current Version | Previous Version | Text Only | Print | Product List | Glossary On
Versions: 1 2 3 4 5 6 7 8 9 10 11 12 13 14 15 16 17 18 19 20 21 22 23 24 25 26 27 28 29 30 31 32 33 34 35 36 37 38 39 40 41 42 43 44 45 46 47 48 49 50
500
ASUS43 KFGF 220831
RWRFGF
PRAIRIE TO PINES  WEATHER ROUNDUP
NATIONAL WEATHER SERVICE EASTERN NORTH DAKOTA/GRAND FORKS ND
200 AM CST WED NOV 22 2017

 **SATELLITE DATA USED TO AUGMENT SKY COVER AT AUTOMATED STATIONS**
 *****  WEATHER ACROSS EASTERN NORTH DAKOTA  *****

CITY           SKY/WX    TMP DP  RH WIND       PRES   REMARKS
GRAND FORKS    FAIR       8   5  87 SW7       30.28F WCI  -3
GRAND FRKS AFB CLEAR      8   4  83 SW6       30.27F WCI  -2
GRAND FRKS NWS   N/A     10 N/A N/A W5          N/A  WCI   2
DEVILS LAKE    NOT AVBL
FARGO          FAIR       8   3  80 S5        30.32F WCI   0
WAHPETON ARPT  NOT AVBL
$$

 ***** WEATHER ACROSS CENTRAL AND WESTERN NORTH DAKOTA  *****

CITY           SKY/WX    TMP DP  RH WIND       PRES   REMARKS
BISMARCK       FAIR      11   7  84 E6        30.19F WCI   1
MINOT          FAIR       9   4  80 SE5       30.10F WCI   1
JAMESTOWN      FAIR       4   1  88 S5        30.23F WCI  -5
MINOT AFB      FAIR       7   2  80 SE7       30.10F WCI  -4
GARRISON         N/A     14  10  84 S10       30.12F WCI   1
WILLISTON      FAIR      17   6  62 S5        30.02F WCI  10
DICKINSON      FAIR      21   8  57 S13       30.01F WCI   9
HETTINGER      FAIR      16   6  65 SE5       30.09F WCI   9
$$

 *****  OTHER AIRPORT OBSERVATIONS IN OUR AREA  *****

CITY           SKY/WX    TMP DP  RH WIND       PRES   REMARKS
WALHALLA       FAIR       7   7 100 S5        30.21F WCI  -2
GRAFTON AIRPOR FAIR       5   1  85 S7        30.27F WCI  -7
VALLEY CITY AR FAIR       5   5 100 SW7       30.26F WCI  -7
CANDO          FAIR       3   1  92 S5        30.20F WCI  -6
CAVALIER APRT  FAIR       7   3  85 S5        30.24F WCI  -2
GWINNER          N/A      3   1  92 S6        30.29S WCI  -8
SHEYENNE NWR     N/A      2  -2  83 SE2       29.95S
ROLLA          PTSUNNY    1  -2  85 S6        30.13F WCI -10
 ***** THE ABOVE OBSERVATIONS ARE NON NWS ARE NOT QUALITY
       CONTROLLED AND MAY MIS-REPORT RAIN FOR SNOW...
$$

  *****  WEATHER ACROSS NORTHERN MINNESOTA  *****

CITY           SKY/WX    TMP DP  RH WIND       PRES   REMARKS
FLAG ISLAND    FAIR       9   5  85 SW9       30.20F WCI  -5
WARROAD        FAIR       9   3  78 SW6       30.23F WCI  -1
ROSEAU         FAIR      10   7  85 SW6       30.24S WCI   1
HALLOCK        FAIR       5   1  85 SW8       30.25S WCI  -8
THF RVR FALLS  FAIR       8   5  87 S7        30.27F WCI  -3
BAUDETTE       FAIR       8   5  87 W5        30.23F WCI   0
WASKISH        FAIR      12  10  92 SW8       30.24F WCI   1
CROOKSTON      FAIR       9   7  92 SW5       30.29S WCI   0
STEPHEN NDAWN    N/A      9   3  78 SW6         N/A  WCI  -1
GREENBUSH NDAW   N/A      9   5  85 S6          N/A  WCI  -1
$$
  *****  WEATHER ACROSS CENTRAL AND WEST MINNESOTA  *****

CITY           SKY/WX    TMP DP  RH WIND       PRES   REMARKS
FOSSTON        FAIR       5   1  85 S6        30.26F WCI  -6
BEMIDJI        FAIR       8   5  90 S5        30.25F WCI  -1
PARK RAPIDS    FAIR       8   4  83 W6        30.29S WCI  -2
ELBOW LAKE     FAIR       8   6  92 W3        30.33F FOG
WADENA         FAIR       9   7  92 CALM      30.30F
DETROIT LAKES  FAIR      12   9  85 SE5       30.28F WCI   4
MOORHEAD       FAIR       9   3  78 CALM      30.31F
FERGUS FALLS   FAIR       9   7  92 CALM      30.35F
MORRIS MN      FAIR      10   7  85 CALM      30.33F
STAPLES        FAIR       7   5  92 W5        30.32R WCI  -2
$$
  *****  WEATHER ELSEWHERE ACROSS MINNESOTA  *****

CITY           SKY/WX    TMP DP  RH WIND       PRES   REMARKS
DULUTH         FAIR      13   9  84 NW10      30.24R WCI   0
INTRNTL FALLS    N/A      5   0  79 SW6       30.24S WCI  -6
ELY            FLURRIES  12   9  85 W7        30.21F WCI   2
CLOQUET        FAIR      16   9  73 W6        30.27R WCI   7
WHEATON        FAIR       7   1  78 SE3       30.36F
BRAINERD       FAIR      15   9  76 NW3       30.31R
HIBBING        FAIR      10   6  84 NW7       30.25F WCI  -1
ALEXANDRIA     FAIR      12   9  87 W5        30.32R WCI   4
SAINT CLOUD    FAIR      13   9  84 NW5       30.33S WCI   5
MINNEAPOLIS    FAIR      16  11  80 W3        30.36R
$$

  *****  WEATHER ACROSS SOUTH DAKOTA  *****

CITY           SKY/WX    TMP DP  RH WIND       PRES   REMARKS
SIOUX FALLS    FAIR      13   7  77 S3        30.34F
BROOKINGS      FAIR      12   7  80 SE3       30.31F
WATERTOWN      FAIR      11   7  84 S3        30.28F
HURON          FAIR       9   5  84 S3        30.33F
SISSETON         N/A      9   5  84 CALM      30.32F
ABERDEEN       FAIR       2  -1  88 SW3       30.30F
MITCHELL       FAIR      13   8  81 S5        30.36F WCI   5
PIERRE         FAIR      16   9  74 SE5       30.24F WCI   9
MOBRIDGE       FAIR      19  14  81 S8        30.19F WCI   9
RAPID CITY     FAIR      25  18  74 SE5       30.11F WCI  19
$$

  *****  SOME WEATHER IN NEARBY STATES *****

CITY           SKY/WX    TMP DP  RH WIND       PRES   REMARKS
GLASGOW MT     FAIR      21  13  71 E14       29.91F WCI   8
GREAT FALLS MT FAIR      53  37  54 SW26G37   29.96R
CHEYENNE WY    FAIR      42  33  70 W7        30.23S
SCOTTSBLUFF NE FAIR      32  25  75 CALM      30.20S
OMAHA NE       FAIR      16   9  74 NW7       30.43S WCI   6
DES MOINES IA  FAIR      21  11  65 NW9       30.40R WCI  11
DAVENPORT IA   FAIR      20  14  77 NW8       30.33R WCI  10
CHICAGO IL     FAIR      26  14  60 NW10      30.25R WCI  16
EAU CLAIRE WI  FAIR      14   7  73 NW5       30.32S WCI   6
LA CROSSE WI   FAIR      22  12  65 N10       30.33R WCI  11
$$

  *****  SOME NATIONAL WEATHER *****

CITY           SKY/WX    TMP DP  RH WIND       PRES   REMARKS
LA GUARDIA NY  CLOUDY    52  43  71 S6        29.97
RALEIGH NC     CLOUDY    52  51  97 CALM      29.96F
ATLANTA GA     FAIR      54  53  97 NW5       30.02F
NEW ORLEANS LA FAIR      62  55  77 N8        30.05S
OKLAHOMA CITY  FAIR      34  13  41 N15       30.37R WCI  24
ALBUQUERQUE NM FAIR      46  24  42 N7        30.39F
SALT LAKE CITY MOCLDY    49  40  71 SE6       30.38S
LOS ANGELES CA FAIR      68  48  48 E3        30.04R
BOISE ID       LGT RAIN  55  49  80 SE13      30.27S
SEATTLE WA     LGT RAIN  57  56  96 E3        29.95R
$$

*** WEATHER ACROSS MANITOBA...SASKATCHEWAN AND ONTARIO ***
                ***ONTARIO***

CITY           SKY/WX    TMP DP  RH WIND       PRES   REMARKS
GERALDTON      FLURRIES  16  12  86 W12G18    30.04R WCI   3
THUNDER BAY    PTCLDY    16  10  79 W7        30.20R WCI   6
SIOUX LOOKOUT  FLURRIES  10   7  85 W6        30.13F WCI   1
TORONTO        CLOUDY    36  25  64 NW14      29.97R
BIG TROUT LK   FLURRIES  14  10  85 W15G24    29.90S WCI  -1
PICKLE LAKE    NOT AVBL
DRYDEN         CLOUDY    10   9  92 SW9       30.14F WCI  -2
KENORA         CLEAR      9   5  85 W7        30.17  WCI  -3
$$
                *** MANITOBA***

CITY           SKY/WX    TMP DP  RH WIND       PRES   REMARKS
BRANDON        CLEAR     -2  -8  78 SW7       30.13F WCI -16
DAUPHIN        PTCLDY     5   1  85 W10       30.12F WCI -10
ISLAND LAKE    NOT AVBL
PILOT MOUND      N/A      3   0  85 W5          N/A  WCI  -6
THE PAS        CLEAR      5   0  78 SW6       30.03F WCI  -6
THOMPSON       CLOUDY     7   1  78 SW3       29.97F
WINNIPEG       CLEAR      7   3  85 SW7       30.20F WCI  -5
LYNN LAKE      CLOUDY     9   7  92 SW7       29.86F WCI  -3
CHURCHILL      PTCLDY     9   3  78 W17G26    29.74F WCI -10
GILLAM         FLURRIES   7   0  72 W12G17    29.91  WCI  -9
$$
                ***SASKATCHEWAN***

CITY           SKY/WX    TMP DP  RH WIND       PRES   REMARKS
ESTEVAN        PTCLDY     7   1  78 E7        30.02F WCI  -5
KINDERSLEY     FLURRIES  10   5  79 E6        29.77F WCI   1
LLOYDMINSTER   CLOUDY     3   0  85 E7        29.84F WCI  -9
PRINCE ALBERT  CRYSTALS  -2  -6  84 SW7       30.00F WCI -16
REGINA         CLOUDY     7   1  78 SE16      29.96F WCI -11
YORKTON        CLOUDY    -4  -8  84 S7        30.03F WCI -18
N. BATTLEFORD  CLOUDY     1  -6  71 SE8       29.93F WCI -12
LA RONGE       FLURRIES   5   1  85 SW3       29.95F
SASKATOON      MOCLDY     3  -2  78 E7        29.95F WCI  -9
SWIFT CURRENT  CLOUDY    25  21  86 S13       29.74F WCI  13
$$
NOTE: THESE ARE AUTOMATED STATIONS WITH LIMITED QUALITY CONTROL
      "FAIR" INDICATES FEW OR NO CLOUDS BELOW 12,000 FEET WITH NO
      SIGNIFICANT WEATHER AND/OR OBSTRUCTIONS TO VISIBILITY.
      SKY/WX - SKY CONDITION AND SIGNIFICANT WEATHER.
      TMP - AIR TEMPERATURE.    DP   - DEWPOINT TEMPERATURE.
      RH  - RELATIVE HUMIDITY.  PRES - PRESSURE.
      HX  - HEAT INDEX.         WCI  - WIND CHILL INDEX.
$




USA.gov is the U.S. government's official web portal to all federal, state and local government web resources and services.